Location: El Chorro
(10.0985°N, 67.3542°W)
Time: 19:28:19
(UTC+00:00)

IRAS Rocket - Pass Details

Date: 15 November 2025
Orbit: 845 x 876 km, 100.1° (Epoch: 06 December)

Event Time Altitude Azimuth Distance (km) Brightness Sun altitude
Rises 22:58:11 0° 154° (SSE) 3,457 7.3 -13.6°
Reaches altitude 10° 23:00:39 10° 148° (SSE) 2,517 6.5 -14.1°
Maximum altitude 23:06:00 48° 75° (ENE) 1,118 4.4 -15.4°
Drops below altitude 10° 23:11:19 10° 2° (N) 2,499 6.5 -16.6°
Sets 23:13:45 0° 356° (N) 3,431 7.2 -17.2°
